Station Historical Data
Daily Summary for September 14, 2017 Units:  Metric    English   Both
« Previous Day
Next Day »
Daily Weekly Monthly Yearly Custom
  High: Low: Average:
Temperature: 25.2 °C 17.3 °C 20.1 °C
Dew Point: 19.3 °C 15.4 °C 17.1 °C
Humidity: 92% 64% 84%
Wind Speed: 11.3km/h 3.2km/h 5.6km/h
Wind Gust: 11.3km/h - -
Wind- - SSW
Pressure: 1016.8 hPa 1013.4 hPa -
Precipitation: 0 mm    
Historical Graphs
 
 
Tabular Data for September 14, 2017
Time Temperature Dew Point Pressure Wind Wind Speed Wind Gust Humidity Rainfall Rate (Hourly) Conditions
00:00 17.6 °C 15.6 °C 1014.1 hPa South 3.2 km/h 3.2 km/h 88% 0 mm OVC
00:05 17.6 °C 15.6 °C 1014.1 hPa South 3.2 km/h 3.2 km/h 88% 0 mm OVC
00:10 17.6 °C 15.6 °C 1014.1 hPa South 3.2 km/h 3.2 km/h 88% 0 mm OVC
00:15 17.6 °C 15.6 °C 1014.1 hPa South 3.2 km/h 3.2 km/h 88% 0 mm BKN
00:20 17.6 °C 15.6 °C 1014.1 hPa South 3.2 km/h 3.2 km/h 88% 0 mm BKN
00:25 17.7 °C 15.7 °C 1014.1 hPa South 3.2 km/h 3.2 km/h 88% 0 mm BKN
00:30 17.7 °C 15.7 °C 1014.1 hPa South 3.2 km/h 3.2 km/h 88% 0 mm BKN
00:40 17.7 °C 15.7 °C 1014.1 hPa South 3.2 km/h 3.2 km/h 88% 0 mm BKN
00:45 17.7 °C 15.7 °C 1014.1 hPa South 3.2 km/h 3.2 km/h 88% 0 mm BKN
00:50 17.6 °C 15.6 °C 1014.1 hPa South 3.2 km/h 3.2 km/h 88% 0 mm BKN
00:55 17.6 °C 15.6 °C 1014.1 hPa South 3.2 km/h 3.2 km/h 88% 0 mm BKN
01:00 17.6 °C 15.6 °C 1014.1 hPa South 3.2 km/h 3.2 km/h 88% 0 mm BKN
01:05 17.6 °C 15.6 °C 1014.1 hPa South 3.2 km/h 3.2 km/h 88% 0 mm BKN
01:10 17.6 °C 15.6 °C 1014.1 hPa South 3.2 km/h 3.2 km/h 88% 0 mm BKN
01:15 17.6 °C 15.6 °C 1014.1 hPa South 3.2 km/h 3.2 km/h 88% 0 mm OVC
01:20 17.6 °C 15.7 °C 1013.8 hPa South 3.2 km/h 3.2 km/h 89% 0 mm OVC
01:25 17.5 °C 15.5 °C 1013.8 hPa South 3.2 km/h 3.2 km/h 88% 0 mm OVC
01:30 17.5 °C 15.5 °C 1013.8 hPa South 3.2 km/h 3.2 km/h 88% 0 mm OVC
01:40 17.5 °C 15.7 °C 1013.8 hPa South 3.2 km/h 3.2 km/h 89% 0 mm OVC
01:45 17.5 °C 15.7 °C 1013.8 hPa South 3.2 km/h 3.2 km/h 89% 0 mm OVC
01:50 17.5 °C 15.7 °C 1013.8 hPa South 3.2 km/h 3.2 km/h 89% 0 mm OVC
01:55 17.5 °C 15.7 °C 1013.8 hPa South 3.2 km/h 3.2 km/h 89% 0 mm OVC
02:00 17.4 °C 15.6 °C 1013.8 hPa South 3.2 km/h 3.2 km/h 89% 0 mm OVC
02:05 17.4 °C 15.6 °C 1013.8 hPa South 3.2 km/h 3.2 km/h 89% 0 mm OVC
02:10 17.4 °C 15.6 °C 1013.8 hPa South 3.2 km/h 3.2 km/h 89% 0 mm OVC
02:15 17.4 °C 15.8 °C 1013.8 hPa South 3.2 km/h 3.2 km/h 90% 0 mm OVC
02:20 17.4 °C 15.6 °C 1013.4 hPa South 3.2 km/h 3.2 km/h 89% 0 mm OVC
02:25 17.4 °C 15.7 °C 1013.8 hPa South 3.2 km/h 3.2 km/h 90% 0 mm OVC
02:30 17.4 °C 15.7 °C 1013.8 hPa South 3.2 km/h 3.2 km/h 90% 0 mm OVC
02:40 17.4 °C 15.6 °C 1013.8 hPa South 3.2 km/h 3.2 km/h 89% 0 mm OVC
02:45 17.4 °C 15.6 °C 1013.8 hPa South 3.2 km/h 3.2 km/h 89% 0 mm OVC
02:50 17.4 °C 15.6 °C 1013.4 hPa South 3.2 km/h 3.2 km/h 89% 0 mm OVC
02:55 17.4 °C 15.6 °C 1013.8 hPa South 3.2 km/h 3.2 km/h 89% 0 mm OVC
03:00 17.4 °C 15.6 °C 1013.8 hPa South 3.2 km/h 3.2 km/h 89% 0 mm OVC
03:05 17.4 °C 15.4 °C 1013.8 hPa South 3.2 km/h 3.2 km/h 88% 0 mm OVC
03:10 17.4 °C 15.6 °C 1013.8 hPa South 3.2 km/h 3.2 km/h 89% 0 mm OVC
03:15 17.4 °C 15.6 °C 1013.8 hPa South 3.2 km/h 3.2 km/h 89% 0 mm OVC
03:20 17.4 °C 15.6 °C 1013.8 hPa South 3.2 km/h 3.2 km/h 89% 0 mm OVC
03:25 17.4 °C 15.6 °C 1013.8 hPa South 3.2 km/h 3.2 km/h 89% 0 mm OVC
03:30 17.4 °C 15.6 °C 1013.8 hPa South 3.2 km/h 3.2 km/h 89% 0 mm OVC
03:40 17.3 °C 15.5 °C 1013.8 hPa South 3.2 km/h 3.2 km/h 89% 0 mm OVC
03:45 17.3 °C 15.5 °C 1013.8 hPa South 3.2 km/h 3.2 km/h 89% 0 mm OVC
03:50 17.3 °C 15.4 °C 1013.8 hPa South 3.2 km/h 3.2 km/h 89% 0 mm OVC
03:55 17.3 °C 15.5 °C 1013.8 hPa South 3.2 km/h 3.2 km/h 89% 0 mm OVC
04:00 17.3 °C 15.5 °C 1013.8 hPa South 3.2 km/h 3.2 km/h 89% 0 mm OVC
04:05 17.3 °C 15.5 °C 1013.8 hPa South 3.2 km/h 3.2 km/h 89% 0 mm OVC
04:10 17.3 °C 15.5 °C 1013.8 hPa South 3.2 km/h 3.2 km/h 89% 0 mm OVC
04:20 17.3 °C 15.4 °C 1013.8 hPa South 3.2 km/h 3.2 km/h 89% 0 mm OVC
04:25 17.3 °C 15.4 °C 1013.8 hPa South 3.2 km/h 3.2 km/h 89% 0 mm OVC
04:30 17.3 °C 15.4 °C 1013.8 hPa South 3.2 km/h 3.2 km/h 89% 0 mm OVC
04:35 17.3 °C 15.5 °C 1013.8 hPa South 3.2 km/h 3.2 km/h 89% 0 mm OVC
04:40 17.3 °C 15.7 °C 1013.8 hPa South 3.2 km/h 3.2 km/h 90% 0 mm OVC
04:45 17.4 °C 15.7 °C 1013.8 hPa South 3.2 km/h 3.2 km/h 90% 0 mm OVC
04:50 17.4 °C 15.7 °C 1013.8 hPa South 3.2 km/h 3.2 km/h 90% 0 mm OVC
04:55 17.4 °C 15.8 °C 1014.1 hPa South 3.2 km/h 3.2 km/h 90% 0 mm OVC
05:00 17.4 °C 15.8 °C 1014.1 hPa South 3.2 km/h 3.2 km/h 90% 0 mm OVC
05:10 17.5 °C 15.8 °C 1014.1 hPa South 3.2 km/h 3.2 km/h 90% 0 mm OVC
05:15 17.5 °C 15.8 °C 1014.1 hPa South 3.2 km/h 3.2 km/h 90% 0 mm OVC
05:20 17.5 °C 15.8 °C 1014.1 hPa South 3.2 km/h 3.2 km/h 90% 0 mm OVC
05:25 17.5 °C 15.8 °C 1014.1 hPa South 3.2 km/h 3.2 km/h 90% 0 mm OVC
05:30 17.5 °C 15.8 °C 1014.1 hPa South 3.2 km/h 3.2 km/h 90% 0 mm OVC
05:35 17.5 °C 15.8 °C 1014.1 hPa South 3.2 km/h 3.2 km/h 90% 0 mm OVC
05:40 17.5 °C 15.8 °C 1014.1 hPa South 3.2 km/h 3.2 km/h 90% 0 mm OVC
05:50 17.5 °C 15.8 °C 1014.4 hPa South 3.2 km/h 3.2 km/h 90% 0 mm OVC
05:55 17.5 °C 15.8 °C 1014.4 hPa South 3.2 km/h 3.2 km/h 90% 0 mm OVC
06:00 17.4 °C 16 °C 1014.4 hPa South 3.2 km/h 3.2 km/h 91% 0 mm OVC
06:05 17.5 °C 16 °C 1014.4 hPa South 3.2 km/h 3.2 km/h 91% 0 mm OVC
06:10 17.4 °C 16 °C 1014.4 hPa South 3.2 km/h 3.2 km/h 91% 0 mm OVC
06:15 17.4 °C 15.8 °C 1014.4 hPa South 3.2 km/h 3.2 km/h 90% 0 mm OVC
06:20 17.4 °C 15.7 °C 1014.8 hPa South 3.2 km/h 3.2 km/h 90% 0 mm OVC
06:25 17.4 °C 15.7 °C 1014.8 hPa South 3.2 km/h 3.2 km/h 90% 0 mm OVC
06:30 17.4 °C 15.7 °C 1014.8 hPa South 3.2 km/h 3.2 km/h 90% 0 mm OVC
06:35 17.3 °C 15.7 °C 1014.8 hPa South 3.2 km/h 3.2 km/h 90% 0 mm OVC
06:40 17.3 °C 15.7 °C 1014.8 hPa South 3.2 km/h 3.2 km/h 90% 0 mm OVC
06:45 17.3 °C 15.7 °C 1014.8 hPa South 3.2 km/h 3.2 km/h 90% 0 mm OVC
06:50 17.3 °C 15.7 °C 1014.8 hPa South 3.2 km/h 3.2 km/h 90% 0 mm OVC
06:55 17.3 °C 15.7 °C 1014.8 hPa South 3.2 km/h 3.2 km/h 90% 0 mm OVC
07:00 17.3 °C 15.7 °C 1014.8 hPa South 3.2 km/h 3.2 km/h 90% 0 mm OVC
07:05 17.3 °C 15.7 °C 1014.8 hPa South 3.2 km/h 3.2 km/h 90% 0 mm OVC
07:10 17.3 °C 15.6 °C 1014.8 hPa South 3.2 km/h 3.2 km/h 90% 0 mm OVC
07:15 17.3 °C 15.6 °C 1014.8 hPa South 3.2 km/h 3.2 km/h 90% 0 mm OVC
07:20 17.3 °C 15.7 °C 1015.1 hPa South 3.2 km/h 3.2 km/h 90% 0 mm OVC
07:25 17.3 °C 15.7 °C 1015.1 hPa South 3.2 km/h 3.2 km/h 90% 0 mm OVC
07:30 17.3 °C 15.6 °C 1015.1 hPa South 3.2 km/h 3.2 km/h 90% 0 mm OVC
07:40 17.3 °C 15.6 °C 1015.5 hPa South 3.2 km/h 3.2 km/h 90% 0 mm OVC
07:45 17.3 °C 15.7 °C 1015.5 hPa South 3.2 km/h 3.2 km/h 90% 0 mm OVC
07:50 17.3 °C 15.7 °C 1015.5 hPa South 3.2 km/h 3.2 km/h 90% 0 mm OVC
07:55 17.4 °C 15.7 °C 1015.5 hPa South 3.2 km/h 3.2 km/h 90% 0 mm OVC
08:00 17.4 °C 15.9 °C 1015.5 hPa South 3.2 km/h 3.2 km/h 91% 0 mm OVC
08:05 17.4 °C 15.9 °C 1015.5 hPa South 3.2 km/h 3.2 km/h 91% 0 mm OVC
08:10 17.4 °C 15.9 °C 1015.5 hPa South 3.2 km/h 3.2 km/h 91% 0 mm OVC
08:20 17.4 °C 15.9 °C 1015.5 hPa South 3.2 km/h 3.2 km/h 91% 0 mm OVC
08:25 17.5 °C 16 °C 1015.5 hPa South 3.2 km/h 3.2 km/h 91% 0 mm OVC
08:30 17.6 °C 16.1 °C 1015.8 hPa South 3.2 km/h 3.2 km/h 91% 0 mm OVC
08:35 17.6 °C 16.1 °C 1015.8 hPa South 3.2 km/h 3.2 km/h 91% 0 mm OVC
08:40 17.7 °C 16.2 °C 1015.8 hPa South 3.2 km/h 3.2 km/h 91% 0 mm OVC
08:45 17.7 °C 16.2 °C 1015.8 hPa South 3.2 km/h 3.2 km/h 91% 0 mm OVC
08:50 17.8 °C 16.3 °C 1015.8 hPa South 3.2 km/h 3.2 km/h 91% 0 mm OVC
08:55 17.9 °C 16.4 °C 1015.8 hPa South 3.2 km/h 3.2 km/h 91% 0 mm OVC
09:00 17.9 °C 16.4 °C 1015.8 hPa South 3.2 km/h 3.2 km/h 91% 0 mm OVC
09:10 18.2 °C 16.7 °C 1015.8 hPa South 3.2 km/h 3.2 km/h 91% 0 mm OVC
09:15 18.2 °C 16.7 °C 1015.8 hPa South 3.2 km/h 3.2 km/h 91% 0 mm OVC
09:20 18.3 °C 16.8 °C 1015.8 hPa South 3.2 km/h 3.2 km/h 91% 0 mm OVC
09:25 18.3 °C 16.8 °C 1015.8 hPa South 3.2 km/h 3.2 km/h 91% 0 mm OVC
09:30 18.4 °C 16.9 °C 1015.8 hPa South 3.2 km/h 3.2 km/h 91% 0 mm OVC
09:35 18.6 °C 17.1 °C 1015.8 hPa South 3.2 km/h 3.2 km/h 91% 0 mm OVC
09:40 18.7 °C 17.2 °C 1015.8 hPa South 3.2 km/h 3.2 km/h 91% 0 mm OVC
09:45 18.9 °C 17.4 °C 1015.8 hPa South 3.2 km/h 3.2 km/h 91% 0 mm OVC
09:50 19.1 °C 17.6 °C 1015.8 hPa South 3.2 km/h 3.2 km/h 91% 0 mm OVC
09:55 19.2 °C 17.5 °C 1015.8 hPa South 3.2 km/h 3.2 km/h 90% 0 mm OVC
10:00 19.3 °C 17.2 °C 1016.1 hPa South 3.2 km/h 3.2 km/h 88% 0 mm OVC
10:05 19.4 °C 17.3 °C 1016.1 hPa South 3.2 km/h 3.2 km/h 88% 0 mm OVC
10:10 19.5 °C 17.3 °C 1016.1 hPa South 3.2 km/h 3.2 km/h 87% 0 mm OVC
10:15 19.6 °C 17.3 °C 1016.1 hPa SSW 4.8 km/h 4.8 km/h 87% 0 mm OVC
10:20 19.7 °C 17.4 °C 1016.1 hPa SW 4.8 km/h 4.8 km/h 87% 0 mm OVC
10:25 19.8 °C 17.7 °C 1016.1 hPa SW 4.8 km/h 4.8 km/h 88% 0 mm OVC
10:30 19.8 °C 17.4 °C 1016.1 hPa SW 4.8 km/h 4.8 km/h 86% 0 mm OVC
10:40 20.1 °C 17.4 °C 1016.1 hPa SW 4.8 km/h 4.8 km/h 85% 0 mm OVC
10:45 20.2 °C 17.4 °C 1016.5 hPa SW 4.8 km/h 4.8 km/h 84% 0 mm OVC
10:50 20.3 °C 17.3 °C 1016.5 hPa SW 4.8 km/h 4.8 km/h 83% 0 mm OVC
10:55 20.4 °C 17.3 °C 1016.5 hPa SW 4.8 km/h 4.8 km/h 82% 0 mm OVC
11:00 20.6 °C 17.4 °C 1016.5 hPa SW 4.8 km/h 4.8 km/h 82% 0 mm OVC
11:05 20.7 °C 17.3 °C 1016.5 hPa SW 4.8 km/h 4.8 km/h 81% 0 mm OVC
11:10 20.8 °C 17.4 °C 1016.5 hPa SW 4.8 km/h 4.8 km/h 81% 0 mm OVC
11:15 20.9 °C 17.5 °C 1016.5 hPa WSW 9.7 km/h 9.7 km/h 81% 0 mm OVC
11:20 20.9 °C 17.4 °C 1016.5 hPa West 9.7 km/h 9.7 km/h 80% 0 mm OVC
11:25 21.1 °C 17.4 °C 1016.5 hPa West 9.7 km/h 9.7 km/h 80% 0 mm OVC
11:30 21.2 °C 17.4 °C 1016.5 hPa West 9.7 km/h 9.7 km/h 79% 0 mm OVC
11:35 21.3 °C 17.7 °C 1016.5 hPa West 9.7 km/h 9.7 km/h 80% 0 mm OVC
11:40 21.5 °C 18.1 °C 1016.5 hPa West 9.7 km/h 9.7 km/h 81% 0 mm OVC
11:45 21.7 °C 18.1 °C 1016.5 hPa West 9.7 km/h 9.7 km/h 80% 0 mm OVC
11:50 21.8 °C 18 °C 1016.5 hPa West 9.7 km/h 9.7 km/h 79% 0 mm OVC
11:55 21.9 °C 17.9 °C 1016.1 hPa West 9.7 km/h 9.7 km/h 78% 0 mm OVC
12:00 22 °C 17.6 °C 1016.1 hPa West 9.7 km/h 9.7 km/h 76% 0 mm OVC
12:05 22.2 °C 17.5 °C 1016.1 hPa West 9.7 km/h 9.7 km/h 75% 0 mm OVC
12:10 22.4 °C 17.8 °C 1016.1 hPa West 9.7 km/h 9.7 km/h 75% 0 mm OVC
12:15 22.8 °C 18.3 °C 1016.1 hPa West 8 km/h 9.7 km/h 76% 0 mm BKN
12:20 23.2 °C 18.3 °C 1016.1 hPa West 8 km/h 8 km/h 74% 0 mm BKN
12:25 23.4 °C 18.1 °C 1016.1 hPa West 8 km/h 8 km/h 72% 0 mm BKN
12:30 23.5 °C 17.9 °C 1015.8 hPa West 8 km/h 8 km/h 71% 0 mm BKN
12:40 23.6 °C 18.1 °C 1015.8 hPa West 8 km/h 8 km/h 71% 0 mm BKN
12:45 23.8 °C 17.9 °C 1015.8 hPa West 8 km/h 8 km/h 70% 0 mm BKN
12:50 23.9 °C 17.9 °C 1015.8 hPa West 8 km/h 8 km/h 69% 0 mm BKN
12:55 24.3 °C 18.3 °C 1015.8 hPa West 8 km/h 8 km/h 69% 0 mm BKN
13:00 24.5 °C 18.2 °C 1015.8 hPa West 8 km/h 8 km/h 68% 0 mm BKN
13:05 24.6 °C 18.3 °C 1015.8 hPa West 8 km/h 8 km/h 68% 0 mm BKN
13:10 24.9 °C 18.8 °C 1015.8 hPa West 8 km/h 8 km/h 69% 0 mm BKN
13:15 25.2 °C 18.6 °C 1015.8 hPa WNW 11.3 km/h 11.3 km/h 67% 0 mm BKN
13:20 25.1 °C 19 °C 1016.1 hPa WNW 11.3 km/h 11.3 km/h 69% 0 mm BKN
13:25 25.1 °C 18.1 °C 1015.8 hPa WNW 11.3 km/h 11.3 km/h 65% 0 mm BKN
13:30 25 °C 17.9 °C 1015.8 hPa WNW 11.3 km/h 11.3 km/h 65% 0 mm BKN
13:35 24.7 °C 17.4 °C 1015.8 hPa WNW 11.3 km/h 11.3 km/h 64% 0 mm BKN
13:40 24.5 °C 17.7 °C 1015.8 hPa WNW 11.3 km/h 11.3 km/h 66% 0 mm BKN
13:45 24.3 °C 18 °C 1015.8 hPa WNW 11.3 km/h 11.3 km/h 68% 0 mm BKN
13:50 24.2 °C 18.6 °C 1015.8 hPa WNW 11.3 km/h 11.3 km/h 71% 0 mm BKN
13:55 24.1 °C 18.2 °C 1015.8 hPa WNW 11.3 km/h 11.3 km/h 70% 0 mm BKN
14:00 23.9 °C 18.1 °C 1015.8 hPa WNW 11.3 km/h 11.3 km/h 70% 0 mm BKN
14:10 23.9 °C 18.1 °C 1015.8 hPa WNW 11.3 km/h 11.3 km/h 70% 0 mm BKN
14:15 23.7 °C 18.1 °C 1015.8 hPa West 8 km/h 11.3 km/h 71% 0 mm BKN
14:20 23.6 °C 18.4 °C 1015.8 hPa West 8 km/h 8 km/h 73% 0 mm BKN
14:25 23.5 °C 18.2 °C 1015.8 hPa West 8 km/h 8 km/h 72% 0 mm BKN
14:30 23.5 °C 18.3 °C 1015.8 hPa West 8 km/h 8 km/h 73% 0 mm BKN
14:35 23.4 °C 18.3 °C 1015.8 hPa West 8 km/h 8 km/h 73% 0 mm BKN
14:40 23.4 °C 18.1 °C 1015.8 hPa West 8 km/h 8 km/h 72% 0 mm BKN
14:45 23.4 °C 18.1 °C 1015.8 hPa West 8 km/h 8 km/h 72% 0 mm BKN
14:50 23.4 °C 18.3 °C 1015.8 hPa West 8 km/h 8 km/h 73% 0 mm BKN
14:55 23.4 °C 18.6 °C 1015.8 hPa West 8 km/h 8 km/h 74% 0 mm BKN
15:00 23.4 °C 18.8 °C 1015.8 hPa West 8 km/h 8 km/h 75% 0 mm BKN
15:05 23.4 °C 18.9 °C 1015.8 hPa West 8 km/h 8 km/h 76% 0 mm BKN
15:10 23.3 °C 18.7 °C 1015.8 hPa West 8 km/h 8 km/h 75% 0 mm BKN
15:15 23.3 °C 18.6 °C 1015.5 hPa WSW 9.7 km/h 9.7 km/h 75% 0 mm OVC
15:20 23.3 °C 19.1 °C 1015.5 hPa WSW 9.7 km/h 9.7 km/h 77% 0 mm OVC
15:25 23.4 °C 18.9 °C 1015.5 hPa WSW 9.7 km/h 9.7 km/h 76% 0 mm OVC
15:30 23.6 °C 18.4 °C 1015.5 hPa WSW 9.7 km/h 9.7 km/h 73% 0 mm OVC
15:35 23.8 °C 18.2 °C 1015.5 hPa WSW 9.7 km/h 9.7 km/h 71% 0 mm OVC
15:40 23.9 °C 18.1 °C 1015.5 hPa WSW 9.7 km/h 9.7 km/h 70% 0 mm OVC
15:45 24 °C 18.2 °C 1015.5 hPa WSW 9.7 km/h 9.7 km/h 70% 0 mm OVC
15:50 24.1 °C 18.4 °C 1015.5 hPa WSW 9.7 km/h 9.7 km/h 71% 0 mm OVC
15:55 24.1 °C 18.4 °C 1015.5 hPa WSW 9.7 km/h 9.7 km/h 71% 0 mm OVC
16:00 24.1 °C 18 °C 1015.5 hPa WSW 9.7 km/h 9.7 km/h 69% 0 mm OVC
16:05 24.2 °C 18.8 °C 1015.1 hPa WSW 9.7 km/h 9.7 km/h 72% 0 mm OVC
16:10 24.3 °C 18.4 °C 1015.1 hPa WSW 9.7 km/h 9.7 km/h 70% 0 mm OVC
16:15 24.3 °C 18.7 °C 1015.5 hPa West 9.7 km/h 9.7 km/h 71% 0 mm OVC
16:20 24.2 °C 18.4 °C 1015.1 hPa WNW 9.7 km/h 9.7 km/h 70% 0 mm OVC
16:25 24.2 °C 18.6 °C 1015.1 hPa WNW 9.7 km/h 9.7 km/h 71% 0 mm OVC
16:30 24.2 °C 18.8 °C 1015.1 hPa WNW 9.7 km/h 9.7 km/h 72% 0 mm OVC
16:35 24.1 °C 18.7 °C 1015.1 hPa WNW 9.7 km/h 9.7 km/h 72% 0 mm OVC
16:40 24.1 °C 19.2 °C 1015.1 hPa WNW 9.7 km/h 9.7 km/h 74% 0 mm OVC
16:45 24.1 °C 19.2 °C 1015.1 hPa WNW 9.7 km/h 9.7 km/h 74% 0 mm OVC
16:50 24.1 °C 19.3 °C 1015.1 hPa WNW 9.7 km/h 9.7 km/h 75% 0 mm OVC
16:55 24 °C 18.4 °C 1015.1 hPa WNW 9.7 km/h 9.7 km/h 71% 0 mm OVC
17:00 24 °C 18.7 °C 1015.1 hPa WNW 9.7 km/h 9.7 km/h 72% 0 mm OVC
17:05 24.1 °C 19.3 °C 1015.1 hPa WNW 9.7 km/h 9.7 km/h 75% 0 mm OVC
17:10 24.1 °C 18.9 °C 1015.1 hPa WNW 9.7 km/h 9.7 km/h 73% 0 mm OVC
17:15 24.1 °C 18.9 °C 1015.1 hPa WNW 8 km/h 9.7 km/h 73% 0 mm OVC
17:20 24.1 °C 18.9 °C 1014.8 hPa West 8 km/h 8 km/h 73% 0 mm OVC
17:25 24.1 °C 18.3 °C 1014.8 hPa West 8 km/h 8 km/h 70% 0 mm OVC
17:30 24.2 °C 19.1 °C 1015.1 hPa West 8 km/h 8 km/h 73% 0 mm OVC
17:35 24.2 °C 18.6 °C 1015.1 hPa West 8 km/h 8 km/h 71% 0 mm OVC
17:40 24.1 °C 18.6 °C 1015.1 hPa West 8 km/h 8 km/h 71% 0 mm OVC
17:45 24 °C 18.8 °C 1015.1 hPa West 8 km/h 8 km/h 73% 0 mm OVC
17:50 23.8 °C 18.7 °C 1015.1 hPa West 8 km/h 8 km/h 73% 0 mm OVC
17:55 23.6 °C 18.7 °C 1015.1 hPa West 8 km/h 8 km/h 74% 0 mm OVC
18:00 23.5 °C 18.8 °C 1015.1 hPa West 8 km/h 8 km/h 75% 0 mm OVC
18:10 23.3 °C 19.3 °C 1015.1 hPa West 8 km/h 8 km/h 78% 0 mm OVC
18:15 23.3 °C 19.1 °C 1015.1 hPa West 9.7 km/h 9.7 km/h 77% 0 mm BKN
18:20 23.2 °C 19.2 °C 1014.8 hPa WSW 9.7 km/h 9.7 km/h 78% 0 mm BKN
18:25 23.2 °C 19.3 °C 1015.1 hPa WSW 9.7 km/h 9.7 km/h 79% 0 mm BKN
18:30 23.1 °C 19 °C 1015.1 hPa WSW 9.7 km/h 9.7 km/h 78% 0 mm BKN
18:35 22.9 °C 18.8 °C 1015.1 hPa WSW 9.7 km/h 9.7 km/h 78% 0 mm BKN
18:40 22.7 °C 18.9 °C 1015.1 hPa WSW 9.7 km/h 9.7 km/h 79% 0 mm BKN
18:45 22.6 °C 18.7 °C 1015.1 hPa WSW 9.7 km/h 9.7 km/h 79% 0 mm BKN
18:50 22.3 °C 18.7 °C 1015.1 hPa WSW 9.7 km/h 9.7 km/h 80% 0 mm BKN
18:55 22.2 °C 18.6 °C 1015.1 hPa WSW 9.7 km/h 9.7 km/h 80% 0 mm BKN
19:00 22 °C 18.6 °C 1015.1 hPa WSW 9.7 km/h 9.7 km/h 81% 0 mm BKN
19:05 21.9 °C 18.5 °C 1015.5 hPa WSW 9.7 km/h 9.7 km/h 81% 0 mm BKN
19:10 21.8 °C 18.4 °C 1015.5 hPa WSW 9.7 km/h 9.7 km/h 81% 0 mm BKN
19:15 21.7 °C 18.5 °C 1015.5 hPa SW 8 km/h 9.7 km/h 82% 0 mm SCT
19:20 21.6 °C 18.4 °C 1015.5 hPa SSW 8 km/h 8 km/h 82% 0 mm SCT
19:25 21.6 °C 18.3 °C 1015.5 hPa SSW 8 km/h 8 km/h 82% 0 mm SCT
19:30 21.4 °C 18.4 °C 1015.5 hPa SSW 8 km/h 8 km/h 83% 0 mm SCT
19:40 21.2 °C 18.2 °C 1015.5 hPa SSW 8 km/h 8 km/h 83% 0 mm SCT
19:45 21.2 °C 18.2 °C 1015.5 hPa SSW 8 km/h 8 km/h 83% 0 mm SCT
19:50 21.1 °C 18.1 °C 1015.5 hPa SSW 8 km/h 8 km/h 83% 0 mm SCT
19:55 20.9 °C 18.2 °C 1015.5 hPa SSW 8 km/h 8 km/h 84% 0 mm SCT
20:00 20.8 °C 18.1 °C 1015.5 hPa SSW 8 km/h 8 km/h 84% 0 mm SCT
20:10 20.6 °C 17.9 °C 1015.8 hPa SSW 8 km/h 8 km/h 85% 0 mm SCT
20:15 20.4 °C 17.8 °C 1015.8 hPa SSW 3.2 km/h 8 km/h 85% 0 mm FEW
20:20 20.3 °C 17.7 °C 1015.8 hPa South 3.2 km/h 3.2 km/h 85% 0 mm FEW
20:25 20.3 °C 17.8 °C 1015.8 hPa South 3.2 km/h 3.2 km/h 86% 0 mm FEW
20:30 20.2 °C 17.8 °C 1015.8 hPa South 3.2 km/h 3.2 km/h 86% 0 mm FEW
20:35 20.1 °C 17.7 °C 1015.8 hPa South 3.2 km/h 3.2 km/h 86% 0 mm FEW
20:40 20 °C 17.6 °C 1015.8 hPa South 3.2 km/h 3.2 km/h 86% 0 mm FEW
20:45 19.9 °C 17.7 °C 1015.8 hPa South 3.2 km/h 3.2 km/h 87% 0 mm FEW
20:50 19.8 °C 17.6 °C 1015.8 hPa South 3.2 km/h 3.2 km/h 87% 0 mm FEW
20:55 19.7 °C 17.5 °C 1015.8 hPa South 3.2 km/h 3.2 km/h 87% 0 mm FEW
21:00 19.6 °C 17.6 °C 1015.8 hPa South 3.2 km/h 3.2 km/h 88% 0 mm FEW
21:05 19.6 °C 17.5 °C 1015.8 hPa South 3.2 km/h 3.2 km/h 88% 0 mm FEW
21:10 19.5 °C 17.4 °C 1016.1 hPa South 3.2 km/h 3.2 km/h 88% 0 mm FEW
21:15 19.4 °C 17.6 °C 1016.1 hPa South 3.2 km/h 3.2 km/h 89% 0 mm FEW
21:20 19.3 °C 17.4 °C 1016.1 hPa South 3.2 km/h 3.2 km/h 89% 0 mm FEW
21:25 19.3 °C 17.4 °C 1016.1 hPa South 3.2 km/h 3.2 km/h 89% 0 mm FEW
21:30 19.2 °C 17.4 °C 1016.1 hPa South 3.2 km/h 3.2 km/h 89% 0 mm FEW
21:35 19.2 °C 17.5 °C 1016.1 hPa South 3.2 km/h 3.2 km/h 90% 0 mm FEW
21:40 19.1 °C 17.4 °C 1016.1 hPa South 3.2 km/h 3.2 km/h 90% 0 mm FEW
21:45 19.1 °C 17.4 °C 1016.1 hPa South 3.2 km/h 3.2 km/h 90% 0 mm FEW
21:50 19.1 °C 17.3 °C 1016.1 hPa South 3.2 km/h 3.2 km/h 90% 0 mm FEW
21:55 19 °C 17.3 °C 1016.1 hPa South 3.2 km/h 3.2 km/h 90% 0 mm FEW
22:00 19 °C 17.3 °C 1016.1 hPa South 3.2 km/h 3.2 km/h 90% 0 mm FEW
22:10 18.9 °C 17.2 °C 1016.5 hPa South 3.2 km/h 3.2 km/h 90% 0 mm FEW
22:15 18.8 °C 17.2 °C 1016.5 hPa South 3.2 km/h 3.2 km/h 90% 0 mm CLR
22:20 18.8 °C 17.1 °C 1016.5 hPa South 3.2 km/h 3.2 km/h 90% 0 mm CLR
22:25 18.7 °C 17 °C 1016.5 hPa South 3.2 km/h 3.2 km/h 90% 0 mm CLR
22:30 18.6 °C 16.9 °C 1016.5 hPa South 3.2 km/h 3.2 km/h 90% 0 mm CLR
22:35 18.6 °C 17.1 °C 1016.5 hPa South 3.2 km/h 3.2 km/h 91% 0 mm CLR
22:40 18.5 °C 17 °C 1016.5 hPa South 3.2 km/h 3.2 km/h 91% 0 mm CLR
22:45 18.4 °C 16.9 °C 1016.5 hPa South 3.2 km/h 3.2 km/h 91% 0 mm CLR
22:50 18.4 °C 16.9 °C 1016.5 hPa South 3.2 km/h 3.2 km/h 91% 0 mm CLR
22:55 18.4 °C 16.9 °C 1016.8 hPa South 3.2 km/h 3.2 km/h 91% 0 mm CLR
23:00 18.3 °C 16.8 °C 1016.8 hPa South 3.2 km/h 3.2 km/h 91% 0 mm CLR
23:10 18.3 °C 16.8 °C 1016.8 hPa South 3.2 km/h 3.2 km/h 91% 0 mm CLR
23:25 18.2 °C 16.8 °C 1016.8 hPa South 3.2 km/h 3.2 km/h 92% 0 mm CLR
23:30 18.1 °C 16.6 °C 1016.8 hPa South 3.2 km/h 3.2 km/h 91% 0 mm CLR
23:35 18.1 °C 16.6 °C 1016.8 hPa South 3.2 km/h 3.2 km/h 91% 0 mm CLR
23:40 18 °C 16.7 °C 1016.8 hPa South 3.2 km/h 3.2 km/h 92% 0 mm CLR
23:45 18.1 °C 16.7 °C 1016.8 hPa South 3.2 km/h 3.2 km/h 92% 0 mm CLR
23:50 18.1 °C 16.7 °C 1016.8 hPa South 3.2 km/h 3.2 km/h 92% 0 mm CLR
23:55 18 °C 16.7 °C 1016.8 hPa South 3.2 km/h 3.2 km/h 92% 0 mm CLR
Piedmont Bend
Compliments of Weather Underground - 2 mb